This is the latest recevied weather packets stored in our database for station/object JS2QVS-13. If no packets are shown the sender has not sent any weather packets the latest 10 day(s).
| Time | Temp. | Humidity | Pressure | Rain* | Wind** | Luminosity | Snow |
|---|---|---|---|---|---|---|---|
| 1777972061 | 18.89° C | 44% | 1017.6 hPa | 0 mm | - | - | - |
| 1777971461 | 18.89° C | 47% | 1017.5 hPa | 0 mm | - | - | - |
| 1777970861 | 18.89° C | 44% | 1017.4 hPa | 0 mm | - | - | - |
| 1777970261 | 18.89° C | 44% | 1017.3 hPa | 0 mm | - | - | - |
| 1777969661 | 19.44° C | 42% | 1017.4 hPa | 0 mm | - | - | - |
| 1777969063 | 20° C | 41% | 1017.4 hPa | 0 mm | - | - | - |
| 1777968463 | 20° C | 38% | 1017.3 hPa | 0 mm | - | - | - |
| 1777967863 | 20° C | 38% | 1017.2 hPa | 0 mm | - | - | - |
| 1777967263 | 20° C | 37% | 1017.3 hPa | 0 mm | - | - | - |
| 1777966662 | 20° C | 39% | 1017.2 hPa | 0 mm | - | - | - |
| 1777966062 | 20° C | 38% | 1017.1 hPa | 0 mm | - | - | - |
| 1777965462 | 20° C | 38% | 1017.1 hPa | 0 mm | - | - | - |
| 1777964862 | 20° C | 42% | 1017.1 hPa | 0 mm | - | - | - |
| 1777964262 | 20.56° C | 44% | 1017.2 hPa | 0 mm | - | - | - |
| 1777963662 | 20.56° C | 43% | 1017 hPa | 0 mm | - | - | - |
| 1777962462 | 20° C | 40% | 1016.9 hPa | 0 mm | - | - | - |
| 1777961862 | 20.56° C | 39% | 1016.9 hPa | 0 mm | - | - | - |
| 1777961261 | 20° C | 40% | 1016.9 hPa | 0 mm | - | - | - |
| 1777960661 | 20° C | 39% | 1016.8 hPa | 0 mm | - | - | - |
| 1777960061 | 20.56° C | 42% | 1016.7 hPa | 0 mm | - | - | - |
| 1777959461 | 20° C | 40% | 1016.7 hPa | 0 mm | - | - | - |
| 1777958863 | 20° C | 41% | 1016.7 hPa | 0 mm | - | - | - |
| 1777958263 | 20° C | 39% | 1016.6 hPa | 0 mm | - | - | - |
| 1777957663 | 20.56° C | 42% | 1016.8 hPa | 0 mm | - | - | - |
| 1777957063 | 20° C | 42% | 1016.8 hPa | 0 mm | - | - | - |
* Rain latest hour (hover to see other rain measurements)
** Current wind speed in m/s (hover to see current wind gust speed)